Theta_e
313 312 313 313 313 312 312 312 313 312 311 311 312 308 307 307 305 299 295 305 308 312 305 298 304 306 308 307 309 313 304 300 300 295 297 299 295 303 305 305 306 311 308 304 307
312 312 312 312 312 312 312 312 312 312 312 310 308 309 309 302 294 293 305 311 312 309 297 295 299 303 301 302 303 307 302 296 293 293 292 294 295 297 299 301 303 301 302 301 303
312 311 311 312 312 312 312 311 312 313 313 313 308 306 304 301 292 291 307 310 310 304 296 296 298 299 295 296 296 296 297 292 290 291 290 292 293 294 292 296 298 293 294 296 298
311 311 310 311 311 311 311 311 311 312 312 312 311 305 301 295 286 294 306 307 307 301 298 295 294 292 291 290 293 291 290 291 289 289 289 289 290 289 291 294 294 293 294 294 294
311 310 310 310 311 310 311 310 310 312 312 311 311 303 296 290 288 298 303 301 299 298 294 293 291 290 288 289 290 289 289 289 289 288 289 289 288 288 291 294 293 293 293 293 293
310 310 310 310 310 309 309 310 309 310 310 308 307 305 293 285 295 298 296 297 296 297 294 293 291 292 289 288 288 289 289 287 287 288 288 287 288 290 291 292 291 291 292 293 293
310 310 310 310 310 308 308 309 308 309 309 307 303 295 291 288 297 297 297 295 295 295 292 293 293 292 290 287 288 287 285 287 286 287 286 288 288 287 291 291 290 291 293 294 295
310 310 309 310 310 307 307 307 307 307 306 305 300 295 288 296 299 296 297 295 297 295 295 295 294 291 288 288 286 283 285 283 284 286 286 287 285 289 291 289 289 290 292 293 296
309 310 309 309 308 306 306 305 305 304 303 299 295 294 287 297 293 295 296 292 294 294 295 294 293 289 288 284 284 284 282 280 282 284 285 284 284 289 291 289 288 290 292 293 294
309 310 309 309 307 305 304 302 302 300 298 293 294 292 290 288 292 293 296 294 291 291 291 291 289 287 286 284 280 279 280 280 280 283 284 283 285 288 289 288 288 290 291 292 293
309 310 309 308 307 304 299 297 295 294 293 287 287 286 288 293 294 292 293 291 291 289 285 286 285 280 281 282 281 280 279 279 281 283 281 283 283 286 288 288 288 289 290 291 292
310 309 309 307 305 302 299 293 291 292 285 288 288 289 290 291 287 290 294 288 288 283 283 284 280 282 283 283 281 280 280 280 282 282 281 282 282 286 287 286 288 288 289 290 292
310 309 307 305 301 297 295 293 297 295 288 285 287 287 288 290 285 286 291 287 284 283 282 282 281 283 282 282 281 280 279 278 277 280 281 281 283 283 286 287 288 289 290 291 291
310 308 306 302 298 294 292 296 296 294 288 285 284 286 288 288 284 289 290 287 284 282 281 280 282 281 281 280 281 278 281 280 278 278 279 281 279 282 284 285 286 288 289 289 291
309 306 304 301 295 291 293 296 295 293 285 282 284 290 288 285 284 285 289 287 282 282 282 280 280 280 279 280 282 280 282 279 278 278 276 277 277 283 282 283 285 287 288 289 291
306 305 303 299 297 294 295 295 292 289 282 281 282 282 283 284 283 286 286 289 286 282 282 280 283 283 281 283 282 282 280 278 278 277 276 276 276 281 282 283 285 287 288 289 290
304 302 299 297 292 295 294 292 287 285 280 282 282 281 281 280 281 282 281 282 281 283 280 279 279 281 282 279 281 282 279 280 279 278 278 276 275 281 284 286 286 286 287 289 290
303 299 297 296 296 294 292 290 282 279 280 279 280 279 279 279 279 280 279 280 281 279 277 277 280 279 281 279 276 278 277 277 272 273 275 277 272 281 285 286 287 288 287 288 289
302 298 297 295 294 292 291 285 285 282 280 279 279 279 278 277 278 278 277 279 280 279 281 277 278 279 280 281 280 277 276 278 274 271 269 276 278 284 285 284 285 286 287 288 288
299 296 295 294 292 291 286 284 282 281 280 280 281 278 282 277 278 278 277 279 280 281 278 277 276 277 279 281 281 279 280 275 275 271 270 275 274 277 282 284 286 286 286 287 288
297 291 292 293 292 288 284 282 279 281 282 280 280 277 278 279 277 279 281 278 281 279 279 277 276 277 277 277 277 276 276 274 275 274 271 269 277 285 283 284 284 285 286 287 288
293 286 291 292 285 274 280 278 279 281 282 282 280 280 279 277 278 276 279 278 282 282 279 279 277 275 277 277 278 278 277 277 275 272 273 271 274 285 283 284 283 284 286 287 288
290 287 290 290 282 280 276 277 279 279 281 280 280 281 280 278 278 277 277 280 283 282 280 280 276 274 275 275 276 275 277 278 276 275 272 271 276 282 282 284 287 285 286 287 288
287 283 285 286 280 281 277 279 279 281 281 281 281 281 279 277 278 276 277 280 282 283 284 283 276 276 277 278 278 273 273 277 276 273 274 273 277 282 283 284 286 286 286 287 287
287 285 285 278 280 278 278 280 277 277 279 281 278 280 279 275 276 276 278 279 280 283 284 280 274 273 275 276 275 275 275 274 273 275 273 278 278 282 284 284 285 285 286 285 285
285 282 281 281 280 280 279 279 278 278 278 277 277 280 279 277 280 277 278 278 278 280 280 279 274 270 269 274 274 273 275 276 275 276 276 276 276 283 284 285 284 284 285 284 284
289 286 287 282 279 279 279 281 279 281 281 282 280 279 278 279 282 281 282 282 282 279 279 277 275 271 271 271 271 271 273 275 275 277 277 274 279 283 283 284 284 284 284 284 284
Wind_Speed
19 19 18 18 17 16 16 15 16 17 18 15 12 4 0 5 11 26 26 18 18 23 16 9 2 4 3 5 6 2 5 6 3 5 6 13 12 10 11 12 14 6 12 19 24
18 19 17 18 17 15 14 14 15 16 16 15 10 8 3 3 4 24 21 25 22 21 7 9 6 6 6 5 6 2 3 4 6 5 7 11 10 13 11 18 17 16 18 21 23
18 18 18 19 17 15 15 15 15 15 15 15 13 7 6 2 2 10 27 26 21 17 2 3 2 4 7 6 6 5 4 4 4 7 6 8 10 6 13 12 10 20 25 25 24
17 19 19 18 17 16 15 15 15 15 16 15 14 9 8 1 6 10 28 24 18 17 13 10 4 5 6 6 4 6 5 2 3 6 4 8 11 11 13 12 12 17 21 22 22
18 18 18 18 18 18 16 15 14 14 14 16 16 12 3 11 8 14 22 17 11 16 22 9 15 5 7 5 3 7 4 4 5 9 4 12 12 6 9 6 20 21 20 21 21
16 16 17 18 17 18 15 13 13 12 13 14 15 8 7 13 9 14 15 9 15 15 21 16 8 9 11 6 7 4 3 2 8 10 1 18 10 6 11 15 18 18 22 22 21
16 16 17 17 17 19 15 12 11 9 12 11 11 4 20 8 3 12 11 6 7 9 9 10 6 5 2 5 4 4 3 3 9 12 7 21 3 10 15 18 19 19 18 20 21
14 15 15 17 16 18 13 7 7 9 9 8 7 3 7 1 5 13 14 2 9 8 5 9 6 9 6 2 3 3 1 3 5 11 5 14 9 8 14 14 16 15 15 17 21
13 14 15 17 16 19 11 5 6 5 8 7 5 3 5 3 6 8 8 7 8 3 8 5 4 7 4 4 3 5 1 2 3 1 8 6 9 15 14 12 14 12 13 16 16
13 14 16 18 17 20 12 4 7 5 6 1 4 3 6 6 6 7 7 6 6 4 2 10 7 7 11 7 5 5 4 4 5 4 14 5 13 15 10 11 12 9 11 14 15
12 14 16 18 18 19 7 2 1 3 12 6 2 3 2 8 3 13 6 5 4 7 5 7 9 10 5 8 6 3 5 8 3 2 13 8 16 12 8 8 12 11 12 14 12
12 14 16 17 13 15 4 6 4 3 6 4 2 3 2 3 4 14 8 3 6 6 2 3 7 3 2 5 6 5 8 8 11 4 9 8 20 10 7 4 9 11 13 14 12
13 13 15 16 6 7 8 5 3 2 2 3 3 3 3 4 3 10 8 2 6 5 9 4 4 2 2 5 10 3 8 10 9 15 4 14 6 6 4 5 5 10 11 15 14
13 12 15 9 4 2 5 4 3 2 3 1 1 3 2 2 3 3 5 3 3 3 2 3 0 3 3 2 7 3 3 13 14 8 5 10 7 3 3 9 6 11 13 16 13
10 10 10 14 5 3 2 4 3 3 3 2 2 3 3 5 5 6 3 1 3 2 1 3 1 2 3 2 4 6 15 10 5 5 5 1 5 4 4 6 9 10 13 15 14
6 8 6 4 3 2 1 2 2 4 5 2 3 3 0 4 3 6 3 5 2 1 4 2 2 2 2 2 3 13 6 4 3 3 3 4 5 7 5 5 8 8 12 14 15
5 10 5 2 2 3 1 1 5 3 3 2 1 2 2 4 3 6 4 5 4 4 5 1 2 1 1 0 1 11 6 3 2 3 4 4 9 14 8 7 8 9 11 13 15
5 4 6 3 2 1 1 4 2 0 4 1 1 2 1 3 2 4 1 3 4 3 2 4 2 2 3 5 3 5 5 3 6 5 11 6 10 4 6 7 13 11 10 12 17
5 2 2 4 4 2 3 1 6 6 6 7 2 1 1 2 2 1 1 4 2 3 1 1 3 2 4 2 2 3 3 2 3 1 5 5 7 16 7 6 6 9 10 14 19
2 1 1 6 5 1 4 5 4 2 5 3 4 1 4 3 3 3 4 5 6 3 2 5 6 2 2 2 4 2 6 2 1 5 8 8 8 11 11 9 10 14 17 19 20
2 1 2 4 2 4 3 6 5 5 5 6 5 5 3 5 3 3 1 2 3 6 4 4 3 3 1 5 6 5 4 2 2 3 4 8 10 7 13 11 10 14 18 23 21
3 2 2 3 2 1 3 4 1 5 2 3 3 3 8 9 6 4 5 4 9 9 6 5 3 5 1 2 2 2 4 6 3 5 5 4 16 6 11 9 9 17 24 23 21
4 1 2 1 5 4 1 3 4 5 5 6 7 4 2 7 4 6 5 1 11 9 7 9 3 4 3 1 0 6 8 8 0 1 9 6 11 3 6 11 20 21 22 23 23
4 4 1 1 1 3 5 5 5 5 3 3 4 4 4 6 4 4 5 5 11 7 4 8 4 6 7 3 3 5 7 13 10 7 7 20 30 34 27 23 24 24 24 25 24
4 5 3 8 8 7 4 5 5 6 3 6 4 9 8 6 5 7 6 5 6 9 8 5 6 5 13 15 9 16 13 13 20 24 12 29 21 30 28 26 26 25 24 24 24
7 6 1 2 4 13 11 10 13 6 11 7 8 13 11 9 10 11 12 8 7 9 9 6 3 2 5 9 13 19 21 17 25 25 27 34 36 32 30 24 19 20 21 22 23
4 2 4 10 9 9 10 12 15 11 11 6 16 7 15 20 5 1 3 4 9 12 14 9 6 2 5 2 10 14 14 17 10 12 19 16 25 19 18 17 16 20 20 20 21
Wind_Direction
42 41 37 41 42 41 39 32 29 31 36 35 34 16 262 40 18 45 36 352 342 336 332 325 62 98 90 70 36 308 219 253 291 352 341 341 343 325 320 276 323 341 347 336 332
40 39 33 33 35 33 29 27 27 29 33 34 31 25 43 67 27 43 1 349 345 349 352 14 58 59 74 50 26 342 237 72 61 14 323 317 324 327 321 317 310 325 335 338 336
36 32 30 28 25 24 23 21 20 19 24 24 25 16 344 247 84 4 348 344 348 0 2 13 90 67 74 47 23 27 74 127 49 16 321 311 298 308 309 296 350 332 329 332 327
32 29 26 23 19 17 17 16 13 10 12 11 17 5 50 298 56 335 338 340 353 12 47 43 28 61 66 76 34 107 83 50 39 353 317 323 310 299 288 312 339 323 323 322 324
29 26 19 19 14 12 9 8 6 10 11 5 2 21 73 62 35 326 332 342 7 22 34 26 46 68 83 76 68 75 95 66 4 352 45 330 314 323 306 344 333 333 331 332 329
25 21 16 14 7 3 357 356 360 4 14 14 3 7 68 68 299 337 338 352 19 21 32 34 47 62 80 64 41 36 39 64 11 349 346 349 312 313 18 340 334 340 338 337 332
20 14 9 4 0 354 351 348 359 357 5 9 19 60 59 73 340 345 352 8 8 20 33 24 10 57 116 97 22 22 104 140 20 347 353 336 117 9 354 342 343 351 351 344 340
15 9 4 358 355 351 349 349 356 354 355 353 26 54 76 342 311 11 357 7 15 33 25 30 37 75 33 146 57 41 65 300 46 356 0 334 3 22 357 339 337 348 359 353 350
10 6 360 359 358 346 343 351 5 22 11 4 37 34 76 334 9 349 14 358 320 13 33 36 43 61 45 14 146 44 92 299 304 218 326 348 315 334 339 336 336 350 0 357 360
5 3 1 359 357 354 345 349 7 27 4 87 94 106 35 348 315 335 357 357 22 329 41 31 45 75 39 349 44 6 326 258 262 342 332 295 291 313 336 340 339 344 2 351 353
2 2 2 0 358 360 3 312 313 41 39 52 42 70 340 323 284 10 355 330 11 55 33 33 60 56 7 357 332 297 291 307 285 187 330 317 307 308 321 332 354 338 330 341 335
359 0 357 355 7 13 52 62 39 9 81 31 62 68 12 337 349 8 359 47 31 47 344 124 71 78 291 320 299 275 312 347 292 271 325 306 304 289 281 314 353 334 330 327 327
354 358 358 351 34 34 59 61 339 294 61 29 41 33 334 355 59 351 11 44 47 52 14 43 87 77 70 352 348 255 347 342 308 313 225 308 245 254 220 282 320 343 333 335 331
351 358 2 344 63 5 43 356 330 304 84 347 21 43 346 5 73 355 20 5 62 86 58 57 130 84 79 27 348 296 3 314 302 304 326 356 296 287 260 310 298 340 339 337 328
353 358 24 28 119 60 355 329 318 244 319 46 36 323 9 39 331 35 354 356 78 102 185 77 219 104 111 20 332 278 327 303 280 273 304 96 282 259 277 305 337 339 327 328 328
19 4 6 19 48 72 339 313 242 41 252 166 317 336 169 36 43 319 18 48 2 101 60 52 280 250 102 292 256 298 295 213 203 259 256 122 4 267 226 311 319 326 321 321 326
77 45 48 41 56 333 265 225 33 178 30 216 127 28 77 18 70 26 27 28 12 354 14 307 208 168 266 46 142 355 305 320 309 336 292 166 290 265 257 273 272 293 295 303 319
75 54 36 50 346 261 24 42 146 106 217 29 135 82 140 345 42 5 109 128 87 85 91 341 235 348 7 52 42 27 348 32 301 311 302 202 239 250 284 274 282 272 266 286 313
118 42 25 8 340 304 88 74 218 195 143 160 120 163 195 228 268 196 17 183 158 179 102 326 255 92 43 80 305 90 70 20 287 44 287 249 272 272 296 260 240 270 287 303 321
124 136 114 332 340 28 81 238 217 196 135 164 203 267 194 207 215 206 188 173 175 159 179 122 292 23 81 178 78 1 124 173 109 303 289 283 285 257 280 302 327 312 310 316 318
111 290 66 350 287 48 198 236 216 210 179 178 181 154 216 205 223 225 189 150 213 133 93 131 159 152 242 202 174 153 170 131 295 220 270 306 281 240 280 292 296 303 306 309 314
127 220 28 312 109 33 199 192 272 178 181 174 171 170 191 169 183 243 238 245 168 158 155 175 163 259 281 130 329 325 193 189 215 192 223 262 269 292 277 298 305 304 307 308 309
176 125 73 224 199 208 257 239 225 174 207 175 198 211 168 176 207 202 201 138 171 172 163 177 198 298 207 179 200 218 195 208 231 334 220 241 257 169 234 282 310 309 306 308 312
142 160 143 194 121 175 161 228 227 203 212 177 151 114 143 200 217 192 222 186 189 191 159 167 187 229 257 355 71 219 190 209 200 227 246 232 279 284 292 301 315 312 307 306 308
154 225 178 176 222 189 178 171 183 196 215 193 220 212 169 177 179 220 181 149 181 203 166 179 236 208 261 275 248 261 247 199 210 226 241 275 268 279 293 303 305 306 303 306 311
154 157 158 157 141 174 185 203 201 173 160 217 232 195 189 181 192 190 164 183 189 178 171 182 235 122 263 280 270 268 260 231 235 244 253 260 274 274 281 286 291 301 307 308 312
130 122 153 161 168 169 199 193 208 146 217 203 213 163 207 230 178 31 86 132 160 164 184 169 186 183 255 324 301 269 244 196 217 223 218 231 247 276 278 290 301 306 307 306 311